Flag for Poland Weather past 2 weeks in Olsztyn, Poland

Now
79 °F

Partly sunny.


Feels Like: 79 °F
Forecast: 60 / 78 °F
Wind: 5 mph from East

Location: Ketrzyn

Current Time: Jul 22, 2014 at 11:45:05 PM

Latest Report: Jul 22, 2014 at 6:00 PM


Visibility: 19 mi

Pressure: 30.03 "Hg

Humidity: 38%

Dew point: 51 °F

Location of OlsztynLocation

Historic Weather in Olsztyn — Graph

°F

Olsztyn temperature yesterday

Maximum temperature yesterday: 77 °F (at 4:00 PM)
Minimum temperature yesterday: 54 °F (at 4:00 AM)
Average temperature yesterday: 67 °F

Past Weeks' High & Low Weather Summary

 TemperatureHumidityPressure
High84 °F (Jul 8, 2:00 PM)100% (Jul 12, 1:00 PM)30.21 "Hg (Jul 12, 1:00 PM)
Low53 °F (Jul 19, 3:00 AM)37% (Jul 22, 3:00 PM)29.74 "Hg (Jul 13, 10:00 AM)
Average69 °F71%29.98 "Hg
* Reported Jul 7 8:00 PM — Jul 22 6:00 PM, Olsztyn, Weather by CustomWeather, © 2014

Note: Actual official high and low records may vary slightly from our data, if they occured in-between our weather recording intervals... More about our weather records

Advertising

Olsztyn weather history for previous 24 hours

 ConditionsComfort  
Time TempWeatherWind HumidityBarometerVisibility
6:00 PM
Jul 22
79 °FPartly sunny.5 mph38%30.03 "Hg19 mi
5:00 PM80 °FScattered clouds.5 mph38%30.02 "Hg22 mi
4:00 PM80 °FScattered clouds.5 mph39%30.02 "Hg12 mi
3:00 PM82 °FScattered clouds.5 mph37%30.02 "Hg16 mi
2:00 PM80 °FScattered clouds.5 mph43%30.03 "Hg19 mi
1:00 PM81 °FScattered clouds.5 mph42%30.03 "Hg17 mi
12:00 PM79 °FScattered clouds.5 mph47%30.04 "Hg16 mi
11:00 AM78 °FPassing clouds.5 mph51%30.04 "Hg19 mi
10:00 AM76 °FSunny.3 mph55%30.03 "Hg14 mi
9:00 AM74 °FSunny.2 mph60%30.03 "Hg25 mi
8:00 AM71 °FSunny.2 mph68%30.04 "Hg19 mi
7:00 AM62 °FSunny.1 mph92%30.04 "Hg12 mi
6:00 AM57 °FSunny.2 mph96%30.03 "Hg9 mi
5:00 AM55 °FFog.No wind96%30.02 "Hg9 mi
3:00 AM57 °FFog.3 mph93%30.00 "Hg6 mi
2:00 AM59 °FClear.1 mph91%29.99 "Hg9 mi
1:00 AM61 °FClear.1 mph82%29.98 "Hg12 mi
12:00 AM66 °FPassing clouds.2 mph75%29.97 "Hg28 mi
11:00 PM
Jul 21
68 °FPassing clouds.1 mph70%29.97 "Hg22 mi
Weather by CustomWeather, © 2014

See weather overviewHow to use our weather pages